GW2741 Weather Reports


time (UTC)temp
C
wind
direction
speed
KPH
gust
KPH
rain 1hr
cm
rain 24hr
cm
rain mn
cm
humidity
%
barometer
mb
20260504215301 8 291 6.4 17.7 0.00 0.00 0.00 77 1013.7
20260504214401 8 327 11.3 27.4 0.00 0.00 0.00 76 1013.7
20260504212601 8 299 6.4 12.9 0.00 0.00 0.00 75 1013.6
20260504211701 9 296 6.4 12.9 0.00 0.00 0.00 75 1013.9
20260504210801 9 309 6.4 12.9 0.00 0.00 0.00 74 1014.1
20260504205901 9 319 6.4 9.7 0.00 0.00 0.00 74 1014.1
20260504204101 9 308 8.0 14.5 0.00 0.00 0.00 72 1013.9
20260504203201 9 288 8.0 17.7 0.00 0.00 0.00 71 1013.9
20260504202301 9 288 8.0 16.1 0.00 0.00 0.00 71 1013.7
20260504201401 9 297 9.7 16.1 0.00 0.00 0.00 70 1013.8
20260504200501 9 286 8.0 17.7 0.00 0.00 0.00 70 1014.0
20260504195601 9 277 8.0 17.7 0.00 0.00 0.00 70 1013.7
20260504194701 10 313 8.0 17.7 0.00 0.00 0.00 70 1013.9
20260504193801 10 323 9.7 17.7 0.00 0.00 0.00 69 1013.9
20260504192001 10 311 11.3 17.7 0.00 0.00 0.00 67 1014.0
20260504191101 10 323 11.3 20.9 0.00 0.00 0.00 67 1013.7
20260504190203 11 305 8.0 17.7 0.00 0.00 0.00 68 1013.5
20260504184401 10 316 6.4 12.9 0.00 0.00 0.00 66 1013.6
20260504183501 10 313 6.4 11.3 0.00 0.00 0.00 65 1013.4
20260504181701 11 312 8.0 12.9 0.00 0.00 0.00 64 1013.1
20260504175901 11 322 8.0 16.1 0.00 0.00 0.00 63 1013.3
20260504174101 11 324 9.7 16.1 0.00 0.00 0.00 60 1013.5
20260504173201 11 319 9.7 16.1 0.00 0.00 0.00 58 1013.4
20260504172303 11 314 9.7 19.3 0.00 0.00 0.00 54 1013.4
20260504170501 12 295 8.0 16.1 0.00 0.00 0.00 51 1013.6
20260504160202 12 297 9.7 17.7 0.00 0.00 0.00 45 1013.8
20260504150802 15 305 6.4 11.3 0.00 0.00 0.00 42 1013.9
20260504140502 13 323 8.0 19.3 0.00 0.00 0.00 43 1014.3
20260504130202 14 327 9.7 14.5 0.00 0.00 0.00 43 1014.3
20260504100202 13 321 8.0 16.1 0.00 0.00 0.00 41 1013.7
20260503222717 10 22 8.0 12.9 0.00 0.03 0.03 92 1016.1
20260503221817 10 22 8.0 12.9 0.00 0.03 0.03 92 1016.0
20260503220917 10 22 8.0 12.9 0.00 0.03 0.03 92 1016.0
20260503220017 10 22 8.0 12.9 0.00 0.03 0.03 92 1015.9